AAL824 PAJN-PANC

Flight info

Callsign AAL824
Flight time 1h 21m
Altitude 31000
Route CHLKT2 ALATY JOH WITTI5
Aircraft B738/M-SDE2E3FGHIRWXY/LB1

Departure

Time 2026-05-04 20:54
Airport Juneau International Airport (PAJN)

Arrival

Time 2026-05-04 22:15
Airport Ted Stevens Anchorage International Airport (PANC)
Time Latitude Longitude Altitude Speed Heading
2026-05-04 20:40 58.35845 -134.58443 34 ft 0 kts 46°
2026-05-04 20:45 58.35833 -134.58468 32 ft 3 kts 56°
2026-05-04 20:46 58.35821 -134.58505 34 ft 4 kts 63°
2026-05-04 20:46 58.35812 -134.58545 32 ft 3 kts 76°
2026-05-04 20:46 58.35809 -134.58584 34 ft 3 kts 91°
2026-05-04 20:46 58.35812 -134.58627 31 ft 3 kts 105°
2026-05-04 20:47 58.35821 -134.58673 32 ft 3 kts 113°
2026-05-04 20:47 58.35827 -134.58701 32 ft 2 kts 112°
2026-05-04 20:47 58.35830 -134.58718 32 ft 0 kts 108°
2026-05-04 20:50 58.35830 -134.58717 32 ft 1 kts 108°
2026-05-04 20:51 58.35794 -134.58632 32 ft 15 kts 162°
2026-05-04 20:51 58.35739 -134.58590 33 ft 12 kts 126°
2026-05-04 20:51 58.35708 -134.58333 33 ft 28 kts 104°
2026-05-04 20:51 58.35643 -134.57882 34 ft 42 kts 104°
2026-05-04 20:52 58.35592 -134.57501 34 ft 45 kts 104°
2026-05-04 20:52 58.35511 -134.56940 33 ft 43 kts 105°
2026-05-04 20:52 58.35437 -134.56415 33 ft 39 kts 104°
2026-05-04 20:52 58.35375 -134.55928 33 ft 36 kts 104°
2026-05-04 20:53 58.35311 -134.55478 31 ft 34 kts 105°
2026-05-04 20:53 58.35184 -134.55329 31 ft 22 kts 231°
2026-05-04 20:53 58.35184 -134.55430 30 ft 16 kts 282°
2026-05-04 20:53 58.35297 -134.56238 33 ft 107 kts 285°
2026-05-04 20:54 58.35550 -134.58050 121 ft 172 kts 284°
2026-05-04 20:54 58.35914 -134.60392 879 ft 198 kts 287°
2026-05-04 20:54 58.36321 -134.63062 1724 ft 218 kts 286°
2026-05-04 20:54 58.36695 -134.65969 2593 ft 235 kts 282°
2026-05-04 20:55 58.36792 -134.69244 3136 ft 257 kts 270°
2026-05-04 20:55 58.37027 -134.72648 3866 ft 264 kts 288°
2026-05-04 20:55 58.37632 -134.75962 4731 ft 266 kts 289°
2026-05-04 20:55 58.38226 -134.79317 5606 ft 268 kts 287°
2026-05-04 20:56 58.38802 -134.82687 6506 ft 269 kts 287°
2026-05-04 20:56 58.39372 -134.86110 7286 ft 272 kts 287°
2026-05-04 20:56 58.39939 -134.89574 8113 ft 274 kts 287°
2026-05-04 20:56 58.40503 -134.93064 8931 ft 276 kts 286°
2026-05-04 20:57 58.41062 -134.96550 9738 ft 279 kts 286°
2026-05-04 20:57 58.41627 -135.00089 10419 ft 287 kts 286°
2026-05-04 20:57 58.42220 -135.03836 10597 ft 311 kts 286°
2026-05-04 20:57 58.42869 -135.07930 10865 ft 330 kts 287°
2026-05-04 20:58 58.43757 -135.12041 11437 ft 338 kts 298°
2026-05-04 20:58 58.45008 -135.15876 12162 ft 342 kts 301°
2026-05-04 20:58 58.46312 -135.19717 12901 ft 346 kts 301°
2026-05-04 20:58 58.47635 -135.23589 13628 ft 349 kts 301°
2026-05-04 20:59 58.48983 -135.27478 14228 ft 354 kts 301°
2026-05-04 20:59 58.50336 -135.31441 14829 ft 357 kts 300°
2026-05-04 20:59 58.51681 -135.35471 15468 ft 360 kts 300°
2026-05-04 20:59 58.53028 -135.39536 16140 ft 363 kts 299°
2026-05-04 21:00 58.54369 -135.43593 16737 ft 368 kts 299°
2026-05-04 21:00 58.55747 -135.47762 17315 ft 373 kts 299°
2026-05-04 21:00 58.57138 -135.51973 17964 ft 376 kts 298°
2026-05-04 21:00 58.58541 -135.56225 18569 ft 379 kts 298°
2026-05-04 21:01 58.59956 -135.60515 19093 ft 382 kts 298°
2026-05-04 21:01 58.61382 -135.64846 19703 ft 384 kts 298°
2026-05-04 21:01 58.62811 -135.69197 20244 ft 387 kts 298°
2026-05-04 21:01 58.64249 -135.73581 20816 ft 388 kts 297°
2026-05-04 21:02 58.65696 -135.77999 21375 ft 391 kts 297°
2026-05-04 21:02 58.67143 -135.82428 21880 ft 392 kts 297°
2026-05-04 21:02 58.68579 -135.86831 22385 ft 395 kts 297°
2026-05-04 21:02 58.70042 -135.91338 22854 ft 398 kts 297°
2026-05-04 21:03 58.71515 -135.95877 23387 ft 400 kts 297°
2026-05-04 21:03 58.72958 -136.00319 23886 ft 402 kts 297°
2026-05-04 21:03 58.74445 -136.04902 24272 ft 404 kts 297°
2026-05-04 21:03 58.75935 -136.09510 24654 ft 406 kts 297°
2026-05-04 21:04 58.77435 -136.14160 25041 ft 409 kts 296°
2026-05-04 21:04 58.78937 -136.18833 25375 ft 413 kts 296°
2026-05-04 21:04 58.80453 -136.23560 25724 ft 415 kts 296°
2026-05-04 21:04 58.81955 -136.28250 26147 ft 417 kts 296°
2026-05-04 21:05 58.83482 -136.33021 26544 ft 418 kts 296°
2026-05-04 21:05 58.85013 -136.37814 26918 ft 420 kts 296°
2026-05-04 21:05 58.86556 -136.42658 27238 ft 424 kts 296°
2026-05-04 21:05 58.88102 -136.47519 27707 ft 423 kts 296°
2026-05-04 21:06 58.89638 -136.52351 28300 ft 419 kts 296°
2026-05-04 21:06 58.91157 -136.57142 28863 ft 416 kts 295°
2026-05-04 21:06 58.92649 -136.61867 29297 ft 416 kts 295°
2026-05-04 21:06 58.94152 -136.66645 29709 ft 416 kts 295°
2026-05-04 21:07 58.95661 -136.71433 30105 ft 416 kts 295°
2026-05-04 21:07 58.97145 -136.76223 30504 ft 413 kts 295°
2026-05-04 21:07 58.98708 -136.80913 30866 ft 414 kts 295°
2026-05-04 21:07 59.00211 -136.85637 31151 ft 412 kts 294°
2026-05-04 21:08 59.03185 -136.95342 31147 ft 424 kts 294°
2026-05-04 21:08 59.06189 -137.05163 31127 ft 428 kts 294°
2026-05-04 21:09 59.09229 -137.15026 31123 ft 427 kts 294°
2026-05-04 21:09 59.12271 -137.24907 31133 ft 425 kts 294°
2026-05-04 21:10 59.15295 -137.34784 31128 ft 424 kts 295°
2026-05-04 21:10 59.18352 -137.44625 31129 ft 423 kts 294°
2026-05-04 21:11 59.21339 -137.54488 31124 ft 422 kts 294°
2026-05-04 21:11 59.24311 -137.64410 31114 ft 423 kts 294°
2026-05-04 21:12 59.27230 -137.74317 31132 ft 423 kts 293°
2026-05-04 21:12 59.30250 -137.84275 31147 ft 429 kts 294°
2026-05-04 21:13 59.33306 -137.94431 31170 ft 433 kts 293°
2026-05-04 21:13 59.36312 -138.04515 31137 ft 432 kts 293°
2026-05-04 21:14 59.39315 -138.14648 31161 ft 433 kts 293°
2026-05-04 21:14 59.42247 -138.24990 31154 ft 430 kts 287°
2026-05-04 21:15 59.44137 -138.36033 31176 ft 425 kts 280°
2026-05-04 21:15 59.45881 -138.47161 31163 ft 426 kts 280°
2026-05-04 21:16 59.47636 -138.58265 31163 ft 424 kts 280°
2026-05-04 21:16 59.49396 -138.69334 31148 ft 423 kts 280°
2026-05-04 21:17 59.51136 -138.80276 31147 ft 420 kts 280°
2026-05-04 21:17 59.52880 -138.91364 31146 ft 429 kts 280°
2026-05-04 21:18 59.54638 -139.02614 31180 ft 439 kts 279°
2026-05-04 21:18 59.56451 -139.14287 31153 ft 449 kts 279°
2026-05-04 21:19 59.58289 -139.26170 31153 ft 457 kts 280°
2026-05-04 21:19 59.60146 -139.38241 31141 ft 460 kts 279°
2026-05-04 21:20 59.61995 -139.50343 31148 ft 461 kts 279°
2026-05-04 21:20 59.63826 -139.62419 31160 ft 461 kts 279°
2026-05-04 21:21 59.65657 -139.74602 31158 ft 462 kts 278°
2026-05-04 21:21 59.67478 -139.86817 31149 ft 463 kts 278°
2026-05-04 21:22 59.69293 -139.99068 31139 ft 464 kts 278°
2026-05-04 21:22 59.71069 -140.11144 31133 ft 464 kts 278°
2026-05-04 21:23 59.72863 -140.23433 31130 ft 464 kts 278°
2026-05-04 21:23 59.74647 -140.35758 31131 ft 465 kts 278°
2026-05-04 21:24 59.76423 -140.48113 31122 ft 465 kts 277°
2026-05-04 21:24 59.78188 -140.60482 31116 ft 465 kts 277°
2026-05-04 21:25 59.79938 -140.72841 31133 ft 465 kts 277°
2026-05-04 21:25 59.81665 -140.85131 31110 ft 465 kts 277°
2026-05-04 21:26 59.83402 -140.97592 31115 ft 465 kts 277°
2026-05-04 21:26 59.85086 -141.09770 31112 ft 465 kts 277°
2026-05-04 21:27 59.86802 -141.22267 31108 ft 465 kts 277°
2026-05-04 21:27 59.88485 -141.34628 31105 ft 465 kts 277°
2026-05-04 21:28 59.90168 -141.47082 31130 ft 465 kts 276°
2026-05-04 21:28 59.91841 -141.59572 31144 ft 467 kts 276°
2026-05-04 21:29 59.93511 -141.72150 31111 ft 470 kts 276°
2026-05-04 21:29 59.95177 -141.84783 31100 ft 471 kts 276°
2026-05-04 21:30 59.96824 -141.97370 31094 ft 471 kts 276°
2026-05-04 21:30 59.98448 -142.09883 31096 ft 471 kts 276°
2026-05-04 21:31 60.00891 -142.28915 31124 ft 471 kts 275°
2026-05-04 21:32 60.02494 -142.41552 31099 ft 472 kts 275°
2026-05-04 21:32 60.04099 -142.54303 31096 ft 473 kts 275°
2026-05-04 21:33 60.05696 -142.67095 31099 ft 473 kts 275°
2026-05-04 21:33 60.07277 -142.79868 31095 ft 473 kts 275°
2026-05-04 21:34 60.08846 -142.92660 31090 ft 473 kts 275°
2026-05-04 21:34 60.10375 -143.05241 31102 ft 475 kts 275°
2026-05-04 21:35 60.11927 -143.18127 31096 ft 476 kts 275°
2026-05-04 21:35 60.13470 -143.31045 31088 ft 476 kts 274°
2026-05-04 21:36 60.15000 -143.43968 31090 ft 476 kts 274°
2026-05-04 21:36 60.16519 -143.56923 31085 ft 476 kts 274°
2026-05-04 21:37 60.18023 -143.69869 31084 ft 476 kts 274°
2026-05-04 21:37 60.19506 -143.82758 31082 ft 476 kts 274°
2026-05-04 21:38 60.20983 -143.95710 31087 ft 475 kts 274°
2026-05-04 21:38 60.22433 -144.08542 31083 ft 476 kts 274°
2026-05-04 21:39 60.23885 -144.21526 31084 ft 475 kts 274°
2026-05-04 21:39 60.25322 -144.34496 31121 ft 475 kts 274°
2026-05-04 21:40 60.26750 -144.47517 31086 ft 476 kts 274°
2026-05-04 21:40 60.28167 -144.60571 31089 ft 477 kts 273°
2026-05-04 21:41 60.29566 -144.73575 31081 ft 477 kts 273°
2026-05-04 21:41 60.30959 -144.86643 31087 ft 477 kts 273°
2026-05-04 21:42 60.32340 -144.99746 31102 ft 479 kts 272°
2026-05-04 21:42 60.33701 -145.12817 31095 ft 483 kts 272°
2026-05-04 21:43 60.34845 -145.23888 31100 ft 485 kts 272°
2026-05-04 21:43 60.36215 -145.37257 31093 ft 487 kts 272°
2026-05-04 21:44 60.37575 -145.50668 31091 ft 487 kts 272°
2026-05-04 21:44 60.38921 -145.64083 31093 ft 487 kts 272°
2026-05-04 21:45 60.40253 -145.77526 31101 ft 488 kts 272°
2026-05-04 21:45 60.41572 -145.90991 31094 ft 488 kts 272°
2026-05-04 21:46 60.42860 -146.04274 31107 ft 488 kts 272°
2026-05-04 21:46 60.44154 -146.17769 31096 ft 488 kts 272°
2026-05-04 21:47 60.45435 -146.31280 31121 ft 488 kts 272°
2026-05-04 21:47 60.46704 -146.44812 31118 ft 488 kts 272°
2026-05-04 21:48 60.47960 -146.58360 31104 ft 489 kts 272°
2026-05-04 21:48 60.49774 -146.71831 31109 ft 500 kts 280°
2026-05-04 21:49 60.52111 -146.85082 31097 ft 502 kts 281°
2026-05-04 21:49 60.54441 -146.98524 31108 ft 507 kts 280°
2026-05-04 21:50 60.56669 -147.12043 31126 ft 509 kts 280°
2026-05-04 21:50 60.57777 -147.18927 30757 ft 515 kts 280°
2026-05-04 21:50 60.58888 -147.25875 30222 ft 514 kts 280°
2026-05-04 21:50 60.59987 -147.32744 29446 ft 509 kts 280°
2026-05-04 21:51 60.61077 -147.39570 28717 ft 505 kts 280°
2026-05-04 21:51 60.62141 -147.46263 27999 ft 501 kts 281°
2026-05-04 21:51 60.63208 -147.52996 27260 ft 497 kts 281°
2026-05-04 21:51 60.64261 -147.59673 26579 ft 493 kts 281°
2026-05-04 21:52 60.65301 -147.66295 25900 ft 489 kts 281°
2026-05-04 21:52 60.66331 -147.72880 25243 ft 485 kts 281°
2026-05-04 21:52 60.67350 -147.79415 24622 ft 481 kts 282°
2026-05-04 21:52 60.68357 -147.85907 23992 ft 478 kts 282°
2026-05-04 21:53 60.69354 -147.92350 23329 ft 474 kts 282°
2026-05-04 21:53 60.70342 -147.98761 22568 ft 470 kts 282°
2026-05-04 21:53 60.71294 -148.04961 21880 ft 466 kts 282°
2026-05-04 21:53 60.72260 -148.11271 21131 ft 464 kts 281°
2026-05-04 21:54 60.73209 -148.17485 20374 ft 463 kts 281°
2026-05-04 21:54 60.74163 -148.23764 19646 ft 461 kts 281°
2026-05-04 21:54 60.75106 -148.30028 18933 ft 460 kts 281°
2026-05-04 21:54 60.76041 -148.36284 18203 ft 458 kts 281°
2026-05-04 21:55 60.76967 -148.42513 17428 ft 456 kts 281°
2026-05-04 21:55 60.77886 -148.48715 16640 ft 454 kts 281°
2026-05-04 21:55 60.78798 -148.54889 15928 ft 452 kts 281°
2026-05-04 21:55 60.79697 -148.60960 15701 ft 437 kts 281°
2026-05-04 21:56 60.80566 -148.66843 15229 ft 429 kts 281°
2026-05-04 21:56 60.81420 -148.72696 14631 ft 428 kts 281°
2026-05-04 21:56 60.82264 -148.78504 14125 ft 423 kts 281°
2026-05-04 21:56 60.83088 -148.84235 13535 ft 415 kts 279°
2026-05-04 21:57 60.83858 -148.89852 12941 ft 403 kts 282°
2026-05-04 21:57 60.84801 -148.95197 12427 ft 398 kts 289°
2026-05-04 21:57 60.85725 -149.00357 11913 ft 389 kts 277°
2026-05-04 21:57 60.86225 -149.05692 11448 ft 385 kts 275°
2026-05-04 21:58 60.86864 -149.11032 10936 ft 385 kts 281°
2026-05-04 21:58 60.87633 -149.16283 10407 ft 381 kts 282°
2026-05-04 21:58 60.88412 -149.21461 9856 ft 377 kts 283°
2026-05-04 21:58 60.89362 -149.26467 9310 ft 377 kts 290°
2026-05-04 21:59 60.90488 -149.31353 8814 ft 377 kts 293°
2026-05-04 21:59 60.91634 -149.36131 8317 ft 377 kts 294°
2026-05-04 21:59 60.92777 -149.40924 8092 ft 367 kts 293°
2026-05-04 21:59 60.93866 -149.45579 8084 ft 354 kts 292°
2026-05-04 22:00 60.94907 -149.50111 8039 ft 348 kts 292°
2026-05-04 22:00 60.95924 -149.54577 8023 ft 341 kts 292°
2026-05-04 22:00 60.96910 -149.58933 8008 ft 331 kts 292°
2026-05-04 22:00 60.97862 -149.63159 7985 ft 318 kts 292°
2026-05-04 22:01 60.98772 -149.67203 8000 ft 304 kts 291°
2026-05-04 22:01 60.99639 -149.71061 7997 ft 291 kts 290°
2026-05-04 22:01 61.00623 -149.74744 7745 ft 300 kts 308°
2026-05-04 22:01 61.02129 -149.77733 7503 ft 300 kts 317°
2026-05-04 22:02 61.03694 -149.80597 7224 ft 300 kts 318°
2026-05-04 22:02 61.05243 -149.83493 6928 ft 301 kts 317°
2026-05-04 22:02 61.06800 -149.86457 6546 ft 306 kts 317°
2026-05-04 22:02 61.08371 -149.89472 6192 ft 311 kts 317°
2026-05-04 22:03 61.09822 -149.92742 5788 ft 315 kts 299°
2026-05-04 22:03 61.10496 -149.96928 5736 ft 301 kts 272°
2026-05-04 22:03 61.10516 -150.01062 5725 ft 289 kts 263°
2026-05-04 22:03 61.10453 -150.05173 5709 ft 282 kts 263°
2026-05-04 22:04 61.10388 -150.09194 5649 ft 277 kts 263°
2026-05-04 22:04 61.10326 -150.13200 5375 ft 283 kts 264°
2026-05-04 22:04 61.10267 -150.17339 4960 ft 292 kts 265°
2026-05-04 22:04 61.10211 -150.21528 4546 ft 297 kts 266°
2026-05-04 22:05 61.10155 -150.25797 4142 ft 298 kts 266°
2026-05-04 22:05 61.10098 -150.30089 3750 ft 298 kts 267°
2026-05-04 22:05 61.10339 -150.34310 3355 ft 297 kts 291°
2026-05-04 22:05 61.11511 -150.37637 2991 ft 281 kts 324°
2026-05-04 22:06 61.13240 -150.39042 2572 ft 260 kts 359°
2026-05-04 22:06 61.14916 -150.38204 2181 ft 242 kts 35°
2026-05-04 22:06 61.15979 -150.35679 1815 ft 230 kts 61°
2026-05-04 22:06 61.16545 -150.32706 1611 ft 212 kts 69°
2026-05-04 22:07 61.16855 -150.29913 1577 ft 184 kts 81°
2026-05-04 22:07 61.16962 -150.27421 1576 ft 168 kts 85°
2026-05-04 22:07 61.16978 -150.25018 1578 ft 170 kts 85°
2026-05-04 22:07 61.16976 -150.22589 1598 ft 167 kts 86°
2026-05-04 22:08 61.16973 -150.20181 1611 ft 169 kts 86°
2026-05-04 22:08 61.16973 -150.18679 1621 ft 172 kts 86°
2026-05-04 22:12 61.16973 -150.18493 1620 ft 173 kts 87°
2026-05-04 22:12 61.16973 -150.15974 1575 ft 174 kts 86°
2026-05-04 22:13 61.16971 -150.13495 1356 ft 169 kts 86°
2026-05-04 22:13 61.16973 -150.11132 1129 ft 162 kts 86°
2026-05-04 22:13 61.16973 -150.08812 927 ft 162 kts 86°
2026-05-04 22:13 61.16974 -150.06454 715 ft 164 kts 85°
2026-05-04 22:14 61.16975 -150.04124 505 ft 164 kts 85°
2026-05-04 22:14 61.16974 -150.01793 266 ft 159 kts 87°
2026-05-04 22:14 61.16967 -149.99603 119 ft 142 kts 88°
2026-05-04 22:14 61.16982 -149.97712 118 ft 122 kts 89°
2026-05-04 22:15 61.16982 -149.96225 117 ft 53 kts 90°
2026-05-04 22:15 61.17072 -149.95919 115 ft 23 kts
2026-05-04 22:15 61.17124 -149.96133 118 ft 18 kts 275°
2026-05-04 22:15 61.17130 -149.96389 119 ft 17 kts 270°
2026-05-04 22:16 61.17128 -149.96701 119 ft 24 kts 270°
2026-05-04 22:16 61.17128 -149.97062 119 ft 27 kts 271°
2026-05-04 22:16 61.17121 -149.97460 115 ft 27 kts 266°
2026-05-04 22:16 61.17120 -149.97842 118 ft 26 kts 271°
2026-05-04 22:17 61.17119 -149.98200 119 ft 24 kts 270°
2026-05-04 22:17 61.17119 -149.98535 116 ft 23 kts 270°
2026-05-04 22:17 61.17208 -149.98766 118 ft 22 kts 339°
2026-05-04 22:17 61.17349 -149.98877 117 ft 21 kts 339°
2026-05-04 22:18 61.17491 -149.98964 118 ft 21 kts 343°
2026-05-04 22:18 61.17624 -149.99064 118 ft 19 kts
2026-05-04 22:18 61.17739 -149.98991 119 ft 11 kts 23°
2026-05-04 22:18 61.17749 -149.98982 117 ft 3 kts 23°
2026-05-04 22:19 61.17753 -149.98979 118 ft 0 kts 24°
2026-05-04 22:19 61.17753 -149.98978 118 ft 0 kts 24°